Time,TemperatureF,DewpointF,PressureIn,WindDirection,WindDirectionDegrees,WindSpeedMPH,WindSpeedGustMPH,Humidity,HourlyPrecipIn,Conditions,Clouds,dailyrainin,SolarRadiationWatts/m^2,SoftwareType,DateUTC
2013-01-18 00:00:00,33.1,20.2,29.96,North,4,4.0,7.8,58,-99.99,,,-99.99,1.0,HOBO +U30 +Weather +,2013-01-18 05:00:00,
2013-01-18 00:10:00,33.1,19.8,29.98,North,1,3.4,7.4,57,-99.99,,,-99.99,1.0,HOBO +U30 +Weather +,2013-01-18 05:10:00,
2013-01-18 00:20:00,32.9,20.0,29.98,North,3,4.0,6.7,58,-99.99,,,-99.99,1.0,HOBO +U30 +Weather +,2013-01-18 05:20:00,
2013-01-18 00:30:00,32.6,19.8,29.96,North,1,7.4,13.4,58,-99.99,,,-99.99,1.0,HOBO +U30 +Weather +,2013-01-18 05:30:00,
2013-01-18 00:40:00,32.5,19.3,29.95,North,355,7.4,14.5,57,-99.99,,,-99.99,1.0,HOBO +U30 +Weather +,2013-01-18 05:40:00,
2013-01-18 00:50:00,32.5,19.5,29.97,North,355,5.6,10.7,58,-99.99,,,-99.99,1.0,HOBO +U30 +Weather +,2013-01-18 05:50:00,
2013-01-18 01:00:00,32.1,19.2,29.96,North,0,6.3,11.9,58,-99.99,,,-99.99,1.0,HOBO +U30 +Weather +,2013-01-18 06:00:00,
2013-01-18 01:10:00,31.9,19.4,29.95,North,0,6.7,14.5,59,-99.99,,,-99.99,1.0,HOBO +U30 +Weather +,2013-01-18 06:10:00,
2013-01-18 01:20:00,31.6,19.6,29.95,North,7,8.9,18.6,60,-99.99,,,-99.99,1.0,HOBO +U30 +Weather +,2013-01-18 06:20:00,
2013-01-18 01:30:00,31.3,19.3,29.94,North,8,7.4,13.4,60,-99.99,,,-99.99,1.0,HOBO +U30 +Weather +,2013-01-18 06:30:00,
2013-01-18 01:40:00,31.2,19.2,29.96,NNE,14,5.6,13.4,60,-99.99,,,-99.99,1.0,HOBO +U30 +Weather +,2013-01-18 06:40:00,
2013-01-18 01:50:00,30.8,19.1,29.97,NNE,24,4.0,10.1,61,-99.99,,,-99.99,1.0,HOBO +U30 +Weather +,2013-01-18 06:50:00,
2013-01-18 02:00:00,30.5,17.9,29.97,NNE,15,4.5,10.7,58,-99.99,,,-99.99,1.0,HOBO +U30 +Weather +,2013-01-18 07:00:00,
2013-01-18 02:10:00,30.2,17.3,29.96,North,6,7.4,17.4,58,-99.99,,,-99.99,1.0,HOBO +U30 +Weather +,2013-01-18 07:10:00,
2013-01-18 02:20:00,30.1,15.4,29.99,North,355,8.9,15.9,53,-99.99,,,-99.99,1.0,HOBO +U30 +Weather +,2013-01-18 07:20:00,
2013-01-18 02:30:00,29.8,16.0,30.00,North,4,5.6,14.1,55,-99.99,,,-99.99,1.0,HOBO +U30 +Weather +,2013-01-18 07:30:00,
2013-01-18 02:40:00,29.0,17.0,30.02,North,10,4.5,11.9,60,-99.99,,,-99.99,1.0,HOBO +U30 +Weather +,2013-01-18 07:40:00,
2013-01-18 02:50:00,28.9,17.9,30.01,NNE,17,5.1,16.3,62,-99.99,,,-99.99,1.0,HOBO +U30 +Weather +,2013-01-18 07:50:00,
2013-01-18 03:00:00,28.8,17.8,29.98,NNE,17,4.0,13.4,63,-99.99,,,-99.99,1.0,HOBO +U30 +Weather +,2013-01-18 08:00:00,
2013-01-18 03:10:00,28.6,18.4,29.97,NE,41,2.9,8.9,65,-99.99,,,-99.99,1.0,HOBO +U30 +Weather +,2013-01-18 08:10:00,
2013-01-18 03:20:00,28.7,19.0,29.99,North,11,1.1,8.9,66,-99.99,,,-99.99,1.0,HOBO +U30 +Weather +,2013-01-18 08:20:00,
2013-01-18 03:30:00,29.0,17.4,29.99,North,10,4.5,10.7,61,-99.99,,,-99.99,1.0,HOBO +U30 +Weather +,2013-01-18 08:30:00,
2013-01-18 03:40:00,28.8,15.5,30.01,NNE,22,4.5,14.1,57,-99.99,,,-99.99,1.0,HOBO +U30 +Weather +,2013-01-18 08:40:00,
2013-01-18 03:50:00,28.8,14.0,30.00,North,11,6.3,12.3,53,-99.99,,,-99.99,1.0,HOBO +U30 +Weather +,2013-01-18 08:50:00,
2013-01-18 04:00:00,28.8,13.7,29.99,North,10,4.5,12.3,52,-99.99,,,-99.99,1.0,HOBO +U30 +Weather +,2013-01-18 09:00:00,
2013-01-18 04:10:00,28.6,13.3,29.98,North,10,5.6,12.3,52,-99.99,,,-99.99,1.0,HOBO +U30 +Weather +,2013-01-18 09:10:00,
2013-01-18 04:20:00,28.6,11.4,29.98,North,7,9.6,17.4,48,-99.99,,,-99.99,1.0,HOBO +U30 +Weather +,2013-01-18 09:20:00,
2013-01-18 04:30:00,28.5,10.7,30.00,North,4,8.9,17.4,46,-99.99,,,-99.99,1.0,HOBO +U30 +Weather +,2013-01-18 09:30:00,
2013-01-18 04:40:00,28.3,10.4,30.00,North,3,9.6,20.4,46,-99.99,,,-99.99,1.0,HOBO +U30 +Weather +,2013-01-18 09:40:00,
2013-01-18 04:50:00,28.2,10.5,30.01,North,355,7.4,14.5,46,-99.99,,,-99.99,1.0,HOBO +U30 +Weather +,2013-01-18 09:50:00,
2013-01-18 05:00:00,28.1,10.1,30.00,North,0,7.4,14.1,46,-99.99,,,-99.99,1.0,HOBO +U30 +Weather +,2013-01-18 10:00:00,
2013-01-18 05:10:00,27.9,9.8,30.01,North,0,9.6,19.7,46,-99.99,,,-99.99,1.0,HOBO +U30 +Weather +,2013-01-18 10:10:00,
2013-01-18 05:20:00,27.7,9.2,30.01,North,4,10.7,18.1,45,-99.99,,,-99.99,1.0,HOBO +U30 +Weather +,2013-01-18 10:20:00,
2013-01-18 05:30:00,27.6,9.3,30.02,North,3,8.5,17.4,45,-99.99,,,-99.99,1.0,HOBO +U30 +Weather +,2013-01-18 10:30:00,
2013-01-18 05:40:00,27.3,8.6,30.04,North,355,11.2,21.5,44,-99.99,,,-99.99,1.0,HOBO +U30 +Weather +,2013-01-18 10:40:00,
2013-01-18 05:50:00,27.2,9.2,30.06,North,355,8.9,14.1,46,-99.99,,,-99.99,1.0,HOBO +U30 +Weather +,2013-01-18 10:50:00,
2013-01-18 06:00:00,26.6,9.9,30.07,North,10,8.5,17.4,48,-99.99,,,-99.99,1.0,HOBO +U30 +Weather +,2013-01-18 11:00:00,
2013-01-18 06:10:00,26.2,10.3,30.08,North,7,9.6,18.1,50,-99.99,,,-99.99,1.0,HOBO +U30 +Weather +,2013-01-18 11:10:00,
2013-01-18 06:20:00,25.2,9.3,30.09,North,355,10.1,19.2,50,-99.99,,,-99.99,1.0,HOBO +U30 +Weather +,2013-01-18 11:20:00,
2013-01-18 06:30:00,24.4,6.9,30.10,North,3,13.0,20.8,46,-99.99,,,-99.99,1.0,HOBO +U30 +Weather +,2013-01-18 11:30:00,
2013-01-18 06:40:00,24.1,6.1,30.11,North,0,11.2,20.8,45,-99.99,,,-99.99,1.0,HOBO +U30 +Weather +,2013-01-18 11:40:00,
2013-01-18 06:50:00,23.5,5.6,30.11,North,3,8.5,15.9,45,-99.99,,,-99.99,1.0,HOBO +U30 +Weather +,2013-01-18 11:50:00,
2013-01-18 07:00:00,23.2,4.1,30.13,North,7,8.9,17.4,43,-99.99,,,-99.99,2.0,HOBO +U30 +Weather +,2013-01-18 12:00:00,
2013-01-18 07:10:00,22.9,3.7,30.13,North,7,6.7,15.2,42,-99.99,,,-99.99,6.0,HOBO +U30 +Weather +,2013-01-18 12:10:00,
2013-01-18 07:20:00,22.6,3.4,30.14,North,3,7.4,13.0,42,-99.99,,,-99.99,18.0,HOBO +U30 +Weather +,2013-01-18 12:20:00,
2013-01-18 07:30:00,22.9,3.7,30.14,North,6,9.6,15.9,42,-99.99,,,-99.99,42.0,HOBO +U30 +Weather +,2013-01-18 12:30:00,
2013-01-18 07:40:00,22.7,3.9,30.15,North,355,8.9,15.9,43,-99.99,,,-99.99,71.0,HOBO +U30 +Weather +,2013-01-18 12:40:00,
2013-01-18 07:50:00,22.9,4.5,30.16,North,355,10.1,15.9,44,-99.99,,,-99.99,101.0,HOBO +U30 +Weather +,2013-01-18 12:50:00,
2013-01-18 08:00:00,23.1,5.1,30.17,North,0,8.9,15.2,45,-99.99,,,-99.99,134.0,HOBO +U30 +Weather +,2013-01-18 13:00:00,
2013-01-18 08:10:00,22.8,4.7,30.18,North,0,10.1,19.2,45,-99.99,,,-99.99,157.0,HOBO +U30 +Weather +,2013-01-18 13:10:00,
2013-01-18 08:20:00,22.7,5.0,30.19,North,355,11.2,20.4,46,-99.99,,,-99.99,186.0,HOBO +U30 +Weather +,2013-01-18 13:20:00,
2013-01-18 08:30:00,23.0,5.7,30.20,North,355,8.9,15.9,46,-99.99,,,-99.99,207.0,HOBO +U30 +Weather +,2013-01-18 13:30:00,
2013-01-18 08:40:00,23.7,7.1,30.21,North,355,7.8,17.4,48,-99.99,,,-99.99,231.0,HOBO +U30 +Weather +,2013-01-18 13:40:00,
2013-01-18 08:50:00,23.3,7.1,30.22,NNW,334,8.5,20.4,49,-99.99,,,-99.99,254.0,HOBO +U30 +Weather +,2013-01-18 13:50:00,
2013-01-18 09:00:00,22.9,6.6,30.22,NNW,345,8.9,18.1,48,-99.99,,,-99.99,278.0,HOBO +U30 +Weather +,2013-01-18 14:00:00,
2013-01-18 09:10:00,23.4,6.3,30.23,NNW,344,6.7,17.0,47,-99.99,,,-99.99,302.0,HOBO +U30 +Weather +,2013-01-18 14:10:00,
2013-01-18 09:20:00,23.7,6.1,30.24,North,352,6.7,17.4,46,-99.99,,,-99.99,323.0,HOBO +U30 +Weather +,2013-01-18 14:20:00,
2013-01-18 09:30:00,22.8,3.9,30.24,NNW,348,8.9,19.2,43,-99.99,,,-99.99,344.0,HOBO +U30 +Weather +,2013-01-18 14:30:00,
2013-01-18 09:40:00,24.2,4.3,30.24,North,0,7.8,14.5,41,-99.99,,,-99.99,363.0,HOBO +U30 +Weather +,2013-01-18 14:40:00,
2013-01-18 09:50:00,23.5,3.4,30.25,North,355,8.5,15.2,41,-99.99,,,-99.99,382.0,HOBO +U30 +Weather +,2013-01-18 14:50:00,
2013-01-18 10:00:00,25.1,5.5,30.26,North,352,7.4,16.3,42,-99.99,,,-99.99,398.0,HOBO +U30 +Weather +,2013-01-18 15:00:00,
2013-01-18 10:10:00,23.3,2.9,30.26,NNW,345,7.8,18.1,40,-99.99,,,-99.99,414.0,HOBO +U30 +Weather +,2013-01-18 15:10:00,
2013-01-18 10:20:00,24.9,3.9,30.27,NNW,345,7.8,15.2,39,-99.99,,,-99.99,429.0,HOBO +U30 +Weather +,2013-01-18 15:20:00,
2013-01-18 10:30:00,23.8,1.3,30.26,NNW,341,8.9,18.6,36,-99.99,,,-99.99,441.0,HOBO +U30 +Weather +,2013-01-18 15:30:00,
2013-01-18 10:40:00,24.8,1.5,30.27,NNW,348,6.7,15.9,35,-99.99,,,-99.99,453.0,HOBO +U30 +Weather +,2013-01-18 15:40:00,
2013-01-18 10:50:00,24.0,0.4,30.27,NNW,341,8.5,17.4,35,-99.99,,,-99.99,463.0,HOBO +U30 +Weather +,2013-01-18 15:50:00,
2013-01-18 11:00:00,24.4,0.7,30.27,NW,326,8.9,20.8,35,-99.99,,,-99.99,472.0,HOBO +U30 +Weather +,2013-01-18 16:00:00,
2013-01-18 11:10:00,24.2,0.3,30.27,NNW,327,8.9,18.1,34,-99.99,,,-99.99,478.0,HOBO +U30 +Weather +,2013-01-18 16:10:00,
2013-01-18 11:20:00,24.5,1.0,30.27,NW,324,8.5,19.2,35,-99.99,,,-99.99,483.0,HOBO +U30 +Weather +,2013-01-18 16:20:00,
2013-01-18 11:30:00,24.5,0.9,30.27,NNW,329,10.7,21.5,35,-99.99,,,-99.99,487.0,HOBO +U30 +Weather +,2013-01-18 16:30:00,
2013-01-18 11:40:00,24.5,1.5,30.27,NNW,334,8.9,17.4,36,-99.99,,,-99.99,491.0,HOBO +U30 +Weather +,2013-01-18 16:40:00,
2013-01-18 11:50:00,24.7,0.6,30.26,NW,323,8.5,17.4,34,-99.99,,,-99.99,491.0,HOBO +U30 +Weather +,2013-01-18 16:50:00,
2013-01-18 12:00:00,24.7,-0.1,30.26,NW,326,10.1,19.2,33,-99.99,,,-99.99,491.0,HOBO +U30 +Weather +,2013-01-18 17:00:00,
2013-01-18 12:10:00,24.5,-1.0,30.27,NW,316,11.2,23.7,32,-99.99,,,-99.99,491.0,HOBO +U30 +Weather +,2013-01-18 17:10:00,
2013-01-18 12:20:00,26.3,1.1,30.27,NNW,336,10.7,22.6,32,-99.99,,,-99.99,487.0,HOBO +U30 +Weather +,2013-01-18 17:20:00,
2013-01-18 12:30:00,26.5,1.8,30.27,NNW,347,7.8,17.4,33,-99.99,,,-99.99,481.0,HOBO +U30 +Weather +,2013-01-18 17:30:00,
2013-01-18 12:40:00,25.6,-0.5,30.28,NW,314,9.6,20.4,31,-99.99,,,-99.99,474.0,HOBO +U30 +Weather +,2013-01-18 17:40:00,
2013-01-18 12:50:00,25.4,-0.9,30.28,NW,321,7.8,18.6,31,-99.99,,,-99.99,466.0,HOBO +U30 +Weather +,2013-01-18 17:50:00,
2013-01-18 13:00:00,25.5,-0.5,30.29,NW,326,8.9,18.6,31,-99.99,,,-99.99,456.0,HOBO +U30 +Weather +,2013-01-18 18:00:00,
2013-01-18 13:10:00,25.8,-0.7,30.29,NW,319,9.6,19.7,30,-99.99,,,-99.99,448.0,HOBO +U30 +Weather +,2013-01-18 18:10:00,
2013-01-18 13:20:00,25.6,-2.4,30.29,NW,310,10.7,21.9,28,-99.99,,,-99.99,437.0,HOBO +U30 +Weather +,2013-01-18 18:20:00,
2013-01-18 13:30:00,26.0,-1.6,30.28,NW,319,11.2,20.8,29,-99.99,,,-99.99,423.0,HOBO +U30 +Weather +,2013-01-18 18:30:00,
2013-01-18 13:40:00,26.7,-0.6,30.28,NW,316,9.6,19.2,29,-99.99,,,-99.99,406.0,HOBO +U30 +Weather +,2013-01-18 18:40:00,
2013-01-18 13:50:00,25.7,-1.0,30.29,NW,324,8.9,17.0,30,-99.99,,,-99.99,388.0,HOBO +U30 +Weather +,2013-01-18 18:50:00,
2013-01-18 14:00:00,26.5,-0.1,30.29,NNW,331,5.6,13.0,30,-99.99,,,-99.99,372.0,HOBO +U30 +Weather +,2013-01-18 19:00:00,
2013-01-18 14:10:00,26.5,-1.6,30.30,NW,309,7.8,20.4,28,-99.99,,,-99.99,352.0,HOBO +U30 +Weather +,2013-01-18 19:10:00,
2013-01-18 14:20:00,27.1,-1.0,30.29,NW,306,7.4,21.9,28,-99.99,,,-99.99,333.0,HOBO +U30 +Weather +,2013-01-18 19:20:00,
2013-01-18 14:30:00,26.9,-1.7,30.29,NW,312,8.9,18.1,28,-99.99,,,-99.99,311.0,HOBO +U30 +Weather +,2013-01-18 19:30:00,
2013-01-18 14:40:00,26.1,-0.4,30.29,NW,321,9.6,19.2,30,-99.99,,,-99.99,288.0,HOBO +U30 +Weather +,2013-01-18 19:40:00,
2013-01-18 14:50:00,26.0,-1.3,30.30,NW,323,10.1,19.2,29,-99.99,,,-99.99,266.0,HOBO +U30 +Weather +,2013-01-18 19:50:00,
2013-01-18 15:00:00,26.5,0.0,30.31,NW,321,8.5,19.7,31,-99.99,,,-99.99,242.0,HOBO +U30 +Weather +,2013-01-18 20:00:00,
2013-01-18 15:10:00,26.2,0.0,30.31,NW,326,8.9,18.1,31,-99.99,,,-99.99,223.0,HOBO +U30 +Weather +,2013-01-18 20:10:00,
2013-01-18 15:20:00,26.8,0.2,30.31,NW,319,8.9,18.1,30,-99.99,,,-99.99,198.0,HOBO +U30 +Weather +,2013-01-18 20:20:00,
2013-01-18 15:30:00,26.6,0.0,30.32,NW,316,6.7,16.3,30,-99.99,,,-99.99,169.0,HOBO +U30 +Weather +,2013-01-18 20:30:00,
2013-01-18 15:40:00,26.4,0.1,30.32,NW,312,6.3,12.3,31,-99.99,,,-99.99,144.0,HOBO +U30 +Weather +,2013-01-18 20:40:00,
2013-01-18 15:50:00,26.1,-0.5,30.32,NW,305,7.4,14.1,30,-99.99,,,-99.99,117.0,HOBO +U30 +Weather +,2013-01-18 20:50:00,
2013-01-18 16:00:00,26.2,0.0,30.32,WNW,302,5.1,11.2,31,-99.99,,,-99.99,84.0,HOBO +U30 +Weather +,2013-01-18 21:00:00,
2013-01-18 16:10:00,26.0,0.3,30.33,WNW,295,5.6,11.9,32,-99.99,,,-99.99,54.0,HOBO +U30 +Weather +,2013-01-18 21:10:00,
2013-01-18 16:20:00,25.4,0.4,30.33,WNW,302,5.1,13.0,33,-99.99,,,-99.99,32.0,HOBO +U30 +Weather +,2013-01-18 21:20:00,
2013-01-18 16:30:00,25.0,0.6,30.33,WNW,288,6.7,13.4,34,-99.99,,,-99.99,16.0,HOBO +U30 +Weather +,2013-01-18 21:30:00,
2013-01-18 16:40:00,24.5,0.8,30.34,WNW,303,6.3,11.2,35,-99.99,,,-99.99,4.0,HOBO +U30 +Weather +,2013-01-18 21:40:00,
2013-01-18 16:50:00,24.3,0.9,30.34,NW,313,4.5,9.6,35,-99.99,,,-99.99,1.0,HOBO +U30 +Weather +,2013-01-18 21:50:00,
2013-01-18 17:00:00,24.3,1.0,30.35,NW,309,5.6,11.9,35,-99.99,,,-99.99,1.0,HOBO +U30 +Weather +,2013-01-18 22:00:00,
2013-01-18 17:10:00,24.1,1.2,30.35,NW,309,4.0,11.2,36,-99.99,,,-99.99,1.0,HOBO +U30 +Weather +,2013-01-18 22:10:00,
2013-01-18 17:20:00,23.9,1.3,30.35,NW,310,3.4,8.9,36,-99.99,,,-99.99,1.0,HOBO +U30 +Weather +,2013-01-18 22:20:00,
2013-01-18 17:30:00,23.6,1.8,30.36,NW,305,2.2,8.5,38,-99.99,,,-99.99,1.0,HOBO +U30 +Weather +,2013-01-18 22:30:00,
2013-01-18 17:40:00,23.8,2.0,30.36,WNW,286,4.0,9.6,38,-99.99,,,-99.99,1.0,HOBO +U30 +Weather +,2013-01-18 22:40:00,
2013-01-18 17:50:00,23.8,1.7,30.37,NW,309,4.5,9.6,37,-99.99,,,-99.99,1.0,HOBO +U30 +Weather +,2013-01-18 22:50:00,
2013-01-18 18:00:00,23.2,1.6,30.37,WNW,298,2.2,7.8,38,-99.99,,,-99.99,1.0,HOBO +U30 +Weather +,2013-01-18 23:00:00,
2013-01-18 18:10:00,23.4,2.1,30.37,WNW,296,2.9,7.8,39,-99.99,,,-99.99,1.0,HOBO +U30 +Weather +,2013-01-18 23:10:00,
2013-01-18 18:20:00,23.4,2.4,30.37,WNW,298,3.4,7.8,39,-99.99,,,-99.99,1.0,HOBO +U30 +Weather +,2013-01-18 23:20:00,
2013-01-18 18:30:00,23.1,2.5,30.38,WNW,285,2.9,8.5,40,-99.99,,,-99.99,1.0,HOBO +U30 +Weather +,2013-01-18 23:30:00,
2013-01-18 18:40:00,23.2,2.8,30.38,WNW,296,4.0,10.1,40,-99.99,,,-99.99,1.0,HOBO +U30 +Weather +,2013-01-18 23:40:00,
2013-01-18 18:50:00,22.9,2.9,30.39,WNW,291,2.2,7.8,41,-99.99,,,-99.99,1.0,HOBO +U30 +Weather +,2013-01-18 23:50:00,
2013-01-18 19:00:00,22.6,3.0,30.40,West,279,1.1,6.7,41,-99.99,,,-99.99,1.0,HOBO +U30 +Weather +,2013-01-19 00:00:00,
2013-01-18 19:10:00,23.3,3.8,30.40,WNW,291,4.0,10.7,42,-99.99,,,-99.99,1.0,HOBO +U30 +Weather +,2013-01-19 00:10:00,
2013-01-18 19:20:00,22.9,3.6,30.40,West,277,2.9,9.6,42,-99.99,,,-99.99,1.0,HOBO +U30 +Weather +,2013-01-19 00:20:00,
2013-01-18 19:30:00,22.7,4.5,30.41,South,185,0.7,6.7,44,-99.99,,,-99.99,1.0,HOBO +U30 +Weather +,2013-01-19 00:30:00,
2013-01-18 19:40:00,23.3,5.0,30.41,WSW,258,1.8,6.3,44,-99.99,,,-99.99,1.0,HOBO +U30 +Weather +,2013-01-19 00:40:00,
2013-01-18 19:50:00,22.8,4.1,30.40,WSW,256,1.8,6.3,43,-99.99,,,-99.99,1.0,HOBO +U30 +Weather +,2013-01-19 00:50:00,
2013-01-18 20:00:00,22.9,5.0,30.40,SSW,199,1.8,7.4,45,-99.99,,,-99.99,1.0,HOBO +U30 +Weather +,2013-01-19 01:00:00,
2013-01-18 20:10:00,23.1,5.6,30.40,WSW,240,0.7,6.3,46,-99.99,,,-99.99,1.0,HOBO +U30 +Weather +,2013-01-19 01:10:00,
2013-01-18 20:20:00,23.1,5.8,30.40,SSW,194,1.8,6.7,46,-99.99,,,-99.99,1.0,HOBO +U30 +Weather +,2013-01-19 01:20:00,
2013-01-18 20:30:00,23.3,5.9,30.40,South,188,2.9,8.9,46,-99.99,,,-99.99,1.0,HOBO +U30 +Weather +,2013-01-19 01:30:00,
2013-01-18 20:40:00,23.1,5.7,30.39,SSW,204,2.2,8.5,46,-99.99,,,-99.99,1.0,HOBO +U30 +Weather +,2013-01-19 01:40:00,
2013-01-18 20:50:00,23.8,6.1,30.39,South,187,4.0,9.6,46,-99.99,,,-99.99,1.0,HOBO +U30 +Weather +,2013-01-19 01:50:00,
2013-01-18 21:00:00,23.6,5.9,30.39,WSW,241,2.2,9.6,46,-99.99,,,-99.99,1.0,HOBO +U30 +Weather +,2013-01-19 02:00:00,
2013-01-18 21:10:00,23.5,6.5,30.39,South,190,1.8,7.4,47,-99.99,,,-99.99,1.0,HOBO +U30 +Weather +,2013-01-19 02:10:00,
2013-01-18 21:20:00,23.6,6.5,30.39,SSW,202,2.2,7.8,47,-99.99,,,-99.99,1.0,HOBO +U30 +Weather +,2013-01-19 02:20:00,
2013-01-18 21:30:00,23.8,6.0,30.38,South,187,3.4,8.9,46,-99.99,,,-99.99,1.0,HOBO +U30 +Weather +,2013-01-19 02:30:00,
2013-01-18 21:40:00,24.3,6.0,30.37,South,191,5.1,10.1,44,-99.99,,,-99.99,1.0,HOBO +U30 +Weather +,2013-01-19 02:40:00,
2013-01-18 21:50:00,24.5,6.0,30.37,SSW,192,2.9,10.1,44,-99.99,,,-99.99,1.0,HOBO +U30 +Weather +,2013-01-19 02:50:00,
2013-01-18 22:00:00,24.3,6.2,30.37,SSW,197,1.8,9.6,45,-99.99,,,-99.99,1.0,HOBO +U30 +Weather +,2013-01-19 03:00:00,
2013-01-18 22:10:00,24.5,6.2,30.37,WSW,241,1.8,8.5,45,-99.99,,,-99.99,1.0,HOBO +U30 +Weather +,2013-01-19 03:10:00,
2013-01-18 22:20:00,24.2,6.1,30.37,SW,232,1.8,6.7,45,-99.99,,,-99.99,1.0,HOBO +U30 +Weather +,2013-01-19 03:20:00,
2013-01-18 22:30:00,24.4,6.5,30.37,WSW,248,1.8,7.8,45,-99.99,,,-99.99,1.0,HOBO +U30 +Weather +,2013-01-19 03:30:00,
2013-01-18 22:40:00,24.4,6.7,30.37,SW,223,1.1,7.4,46,-99.99,,,-99.99,1.0,HOBO +U30 +Weather +,2013-01-19 03:40:00,
2013-01-18 22:50:00,24.1,6.3,30.36,WSW,256,2.9,8.9,46,-99.99,,,-99.99,1.0,HOBO +U30 +Weather +,2013-01-19 03:50:00,
2013-01-18 23:00:00,24.1,7.0,30.36,WSW,240,1.8,7.8,47,-99.99,,,-99.99,1.0,HOBO +U30 +Weather +,2013-01-19 04:00:00,
2013-01-18 23:10:00,24.0,7.1,30.36,WSW,239,1.8,10.1,47,-99.99,,,-99.99,1.0,HOBO +U30 +Weather +,2013-01-19 04:10:00,
2013-01-18 23:20:00,24.3,7.9,30.35,SSW,192,2.9,8.5,49,-99.99,,,-99.99,1.0,HOBO +U30 +Weather +,2013-01-19 04:20:00,
2013-01-18 23:30:00,24.6,8.6,30.35,South,188,2.9,8.5,49,-99.99,,,-99.99,1.0,HOBO +U30 +Weather +,2013-01-19 04:30:00,
2013-01-18 23:40:00,24.9,9.3,30.35,South,187,2.9,8.5,51,-99.99,,,-99.99,1.0,HOBO +U30 +Weather +,2013-01-19 04:40:00,
2013-01-18 23:50:00,25.4,10.5,30.34,South,190,4.0,10.1,52,-99.99,,,-99.99,1.0,HOBO +U30 +Weather +,2013-01-19 04:50:00,